Location: Laguna de la Cañada del Gallo
(40.3974°N, 5.2096°W)
Time: 11:05:57
(UTC+00:00)

Cosmos 2227 Rocket - Pass Details

Date: 18 April 2024
Orbit: 837 x 846 km, 71.0° (Epoch: 21 May)

Event Time Altitude Azimuth Distance (km) Brightness Sun altitude
Rises 21:46:28 0° 339° (NNW) 3,414 6.4 -27.3°
Reaches altitude 10° 21:48:57 10° 342° (NNW) 2,475 5.4 -27.7°
Enters shadow 21:54:13 65° 40° (NE) 930 2.3 -28.3°
